Погода в Ковардах

Россия / Республика Башкортостан     54°12′37″N   56°45′50″E
темп.,
°C
ветер,
м/с
пор.,
м/с
влажн.,
%
обл.,
%
осадки,
мм/ч
давл.,
гПа
погр.,
м
20 апреля, вт
вт2023:000вюв512420 0.0 1032609
02:00−1вюв49420 0.0 1033416
05:00−2вюв37450 0.0 1034260
08:000в37352 0.0 1035601
11:00+5вюв34270 0.0 10341268
14:00+8вюв24240 0.0 10331650
17:00+9в12240 0.0 10311668
20:00+6св22410 0.0 103118
21 апреля, ср
ср2123:00+3вюв11470 0.0 103210
02:00+2юв21530 0.0 103211
05:000ююв22590 0.0 103410
08:00+3вюв114798 0.0 1034132
11:00+9ююв1232100 0.0 1032899
14:00+13ю2426100 0.0 10311555
17:00+13ююв4527100 0.0 10291636
20:00+10ююв3744100 0.0 1030152
22 апреля, чт
чт2223:00+8ююв3847100 0.0 1031212
02:00+7юв4948100 0.0 1031342
05:00+6ююв2658100 0.0 1032195
08:00+6ююв3953100 0.0 1032649
11:00+10ю61036100 0.0 10321222
14:00+11ю71034100 0.0 10321535
17:00+10ю41143100 0.1 10311760
20:00+9ю3648100 0.0 1031187
23 апреля, пт
пт2323:00+7ю51070100 0.0 1032961
02:00+5ююв2988100 1.6 1031844
05:00+5ююв3890100 2.3 1030923
08:00+5ююв3897100 0.6 1030832
11:00+7ю2481100 1.0 1030564
14:00+12ююв2654100 0.1 10271606
17:00+13юв2456100 0.1 1026713
20:00+11юв1167100 0.1 102512
24 апреля, сб
сб2423:00+9ю3873100 0.2 1025345
02:00+7вюв1292100 2.3 1024131
05:00+7вюв3688100 3.6 1022916
08:00+6вюв3890100 0.3 1020764
11:00+6вюв4986100 1.1 1018774
14:00+8вюв4881100 0.1 1016807
17:00+10вюв4975100 0.8 10141192
20:00+9св497193 0.3 1011285